Key West, FL

6:14 PM EST on February 08, 2016 (GMT -0500)
Key West Naval Air Station

Weather History for KNQX - November, 2013

Change the Weather History Date:

Monday, November 4, 2013

  Actual Average (KEYW) Record (KEYW)
Temperature  
Mean Temperature 78 °F 77 °F  
Max Temperature 82 °F 82 °F 87 °F (1992)
Min Temperature 73 °F 73 °F 57 °F (1966)
Degree Days  
Heating Degree Days 0 0  
Month to date heating degree days 0  
Since 1 July heating degree days 0  
Cooling Degree Days 12 12  
Month to date cooling degree days 51  
Year to date cooling degree days 4259  
Growing Degree Days 28 (Base 50)    
Moisture  
Dew Point 53 °F    
Average Humidity 50    
Maximum Humidity 83    
Minimum Humidity 16    
Precipitation  
Precipitation 0.15 in 0.10 in 4.79 in (1963)
Month to date precipitation 0.41  
Year to date precipitation 35.72  
Snow  
Snow 0.00 in - - ()
Month to date snowfall  
Since 1 July snowfall  
Since 1 September snowfall  
Snow Depth -    
Sea Level Pressure  
Sea Level Pressure 30.01 in    
Wind  
Wind Speed 14 mph (NE)    
Max Wind Speed 18 mph    
Max Gust Speed 29 mph    
Visibility 9 miles    
Events Rain    
T = Trace of Precipitation, MM = Missing Value Source: NWS Daily Summary

Daily Weather History Graph

Daily Weather History Graph

Search for Another Location

Airport or City:

Trip Planner

Search our weather history database for the weather conditions in past years. The results will help you decide how hot, cold, wet, or windy it might be!

Date:

Astronomy

Nov. 04, 2013 Rise Set
Actual Time 6:35 AM EST 5:44 PM EST
Civil Twilight 6:12 AM EST 6:08 PM EST
Nautical Twilight 5:44 AM EST 6:35 PM EST
Astronomical Twilight 5:18 AM EST 7:02 PM EST
Moon 7:38 AM EST (11/4) 6:55 PM EST (11/4)
Length of Visible Light 11h 56m
Length of Day
11h 09m
New Moon, 2% of the Moon is Illuminated
Nov 4
New Moon
Nov 10
First Quarter
Nov 17
Full
Nov 25
Last Quarter
Dec 2
New

Hourly Weather History & Observations

Time (EST) Temp. Heat Index Dew Point Humidity Pressure Visibility Wind Dir Wind Speed Gust Speed Precip Events Conditions
12:53 AM 75.0 °F - 25.0 °F 16% 29.99 in 10.0 mi NNE 16.1 mph - N/A   Overcast
1:53 AM 75.0 °F - 26.1 °F 16% 29.98 in 10.0 mi NE 15.0 mph 21.9 mph N/A   Overcast
2:53 AM 75.0 °F - 26.1 °F 16% 29.97 in 10.0 mi NE 15.0 mph 21.9 mph N/A   Partly Cloudy
3:53 AM 73.9 °F - 25.0 °F 16% 29.97 in 10.0 mi NE 16.1 mph 23.0 mph N/A   Clear
4:53 AM 73.9 °F - 26.1 °F 17% 29.97 in 10.0 mi NE 13.8 mph 20.7 mph N/A   Clear
5:53 AM 73.9 °F - 26.1 °F 17% 29.99 in 10.0 mi NNE 15.0 mph 21.9 mph N/A   Clear
6:09 AM 73.4 °F - 26.6 °F 18% 30.00 in 10.0 mi NE 12.7 mph 23.0 mph N/A   Partly Cloudy
6:53 AM 73.9 °F - 66.2 °F 77% 30.00 in 10.0 mi NE 15.0 mph 23.0 mph N/A   Partly Cloudy
7:53 AM 75.0 °F - 64.4 °F 69% 30.02 in 10.0 mi NE 11.5 mph 18.4 mph N/A   Partly Cloudy
8:53 AM 77.0 °F - 66.2 °F 69% 30.04 in 10.0 mi NE 17.3 mph 23.0 mph N/A   Partly Cloudy
9:53 AM 79.0 °F - 66.2 °F 65% 30.06 in 10.0 mi NE 15.0 mph 26.5 mph N/A   Scattered Clouds
10:53 AM 80.1 °F 82.1 °F 66.2 °F 62% 30.05 in 10.0 mi ENE 11.5 mph 21.9 mph N/A   Partly Cloudy
11:53 AM 80.1 °F 82.1 °F 66.2 °F 62% 30.03 in 10.0 mi NE 16.1 mph 23.0 mph N/A   Partly Cloudy
12:53 PM 82.0 °F 84.3 °F 66.2 °F 59% 30.01 in 10.0 mi ENE 17.3 mph 26.5 mph N/A   Scattered Clouds
1:53 PM 82.0 °F 83.1 °F 62.6 °F 52% 29.99 in 10.0 mi ENE 13.8 mph - N/A   Scattered Clouds
2:53 PM 82.4 °F 83.4 °F 62.6 °F 51% 29.99 in 10.0 mi ENE 16.1 mph 21.9 mph N/A   Scattered Clouds
3:53 PM 82.4 °F 82.9 °F 60.8 °F 48% 29.99 in 10.0 mi NE 12.7 mph - N/A   Scattered Clouds
4:53 PM 80.6 °F 81.8 °F 62.6 °F 54% 29.99 in 10.0 mi NE 11.5 mph - N/A   Scattered Clouds
5:53 PM 80.6 °F 82.3 °F 64.4 °F 58% 29.99 in 10.0 mi NE 8.1 mph - N/A   Scattered Clouds
6:53 PM 78.8 °F - 64.4 °F 61% 30.00 in 10.0 mi NE 12.7 mph 18.4 mph N/A   Scattered Clouds
7:53 PM 77.0 °F - 69.8 °F 78% 30.01 in 10.0 mi NE 13.8 mph 25.3 mph N/A   Scattered Clouds
8:53 PM 75.4 °F - 69.8 °F 83% 30.03 in 10.0 mi NE 18.4 mph 28.8 mph N/A   Mostly Cloudy
9:53 PM 75.2 °F - 69.8 °F 83% 30.04 in 10.0 mi NE 17.3 mph 23.0 mph 0.01 in   Mostly Cloudy
10:02 PM - - - N/A% 30.04 in 2.5 mi NNE 12.7 mph - 0.02 in   Unknown
10:07 PM - - - N/A% 30.04 in 1.8 mi NE 10.4 mph - 0.05 in   Unknown
10:22 PM - - - N/A% 30.04 in 3.0 mi ENE 6.9 mph - 0.11 in Rain Light Rain
10:51 PM - - - N/A% 30.02 in 10.0 mi NE 13.8 mph - 0.11 in   Overcast
10:53 PM - - - N/A% 30.02 in 10.0 mi NE 17.3 mph 25.3 mph 0.11 in   Overcast
11:53 PM - - - N/A% 30.01 in 5.0 mi NE 11.5 mph 18.4 mph 0.03 in Rain Light Rain